Location: ??????
(33.3472°N, 35.4764°E)
Time: 16:13:26
(UTC+00:00)

Spot 2 - Pass Details

Date: 21 August 2019
Orbit: 571 x 774 km, 98.7° (Epoch: 16 September)

Event Time Altitude Azimuth Distance (km) Brightness Sun altitude
Rises 01:03:12 0° 11° (N) 3,255 8.4 -23.8°
Reaches altitude 10° 01:05:33 10° 10° (N) 2,324 7.5 -23.4°
Maximum altitude 01:10:41 77° 285° (WNW) 788 4.4 -22.5°
Enters shadow 01:11:58 51° 212° (SSW) 954 4.6 -22.3°
